Weather in Sharoy

Russia / Chechen Republic     42°37′30″N   45°48′01″E
temp.,
°C
wind,
m/s
gust,
m/s
humid.,
%
clouds,
%
prec.,
mm/h
press.,
hPa
HPBL,
m
27 february, sat
sat2700:00−4s227775 0.0 102425
03:00−4s227039 0.0 102424
06:00−4s23690 0.0 102325
09:00+1e11680 0.0 1021213
12:00+3nne11760 0.0 1019553
15:00+2nnw229021 0.0 1017338
18:000ssw019878 0.0 101837
21:00−1sse119371 0.1 101826
28 february, sun
sun2800:00−2s228067 0.1 101732
03:00−4s337046 0.1 101763
06:00−4s33690 0.0 101763
09:00+1e01660 0.0 1016265
12:00+3n12770 0.0 1014485
15:000n239823 0.1 1014200
18:00−2n1198100 0.8 1016105
21:00−3nnw129699 2.0 1018128
1 march, mon
mon100:00−4nnw1297100 1.6 1018145
03:00−5n1297100 2.6 1019139
06:00−5n2397100 2.1 1021225
09:00−5n2393100 3.3 1022337
12:00−3n3494100 0.9 1023462
15:00−4n3393100 2.1 1023392
18:00−7ne0198100 0.4 102531
21:00−7sse0189100 0.5 102721
2 march, tue
tue200:00−8s019098 0.1 102828
03:00−7s119099 0.1 102741
06:00−7nw0192100 0.4 102856
09:00−4nnw118493 0.8 1028319
12:00−3n228580 0.1 1026505
15:00−3n229188 0.3 1024315
18:00−6s119162 0.1 102557
21:00−8s337437 0.1 102556
3 march, wed
wed300:00−8s34724 0.0 102475
03:00−8s337139 0.0 102380
06:00−6s3465100 0.0 102172
09:00−2nnw126199 0.0 1019401
12:00−1n3269100 0.1 1017696
15:00−1nnw377298 0.2 10171305
18:00−5n2497100 3.0 1019270
21:00−6n1297100 5.3 1022168